Time,TemperatureF,DewpointF,PressureIn,WindDirection,WindDirectionDegrees,WindSpeedMPH,WindSpeedGustMPH,Humidity,HourlyPrecipIn,Conditions,Clouds,dailyrainin,SoftwareType,DateUTC
2013-01-20 00:02:00,24.0,20.0,27.24,NNW,341,7.5,7.5,84,0.00,--,--,0.00,awk and wget,2013-01-20 05:02:00,
2013-01-20 00:05:00,23.8,19.6,27.24,NNW,338,5.5,6.0,83,0.00,--,--,0.00,awk and wget,2013-01-20 05:05:00,
2013-01-20 00:10:00,23.7,19.4,27.23,NNW,337,7.4,7.4,83,0.00,--,--,0.00,awk and wget,2013-01-20 05:10:00,
2013-01-20 00:15:00,25.1,19.7,27.23,NNW,338,3.5,7.9,79,0.00,--,--,0.00,awk and wget,2013-01-20 05:15:00,
2013-01-20 00:20:00,24.5,18.9,27.23,NNW,337,8.2,8.3,78,0.00,--,--,0.00,awk and wget,2013-01-20 05:20:00,
2013-01-20 00:30:00,24.4,19.2,27.23,NNW,338,5.0,9.2,80,0.00,--,--,0.00,awk and wget,2013-01-20 05:30:00,
2013-01-20 00:40:00,25.1,19.3,27.23,NNW,338,4.4,9.2,78,0.00,--,--,0.00,awk and wget,2013-01-20 05:40:00,
2013-01-20 00:45:00,23.8,18.0,27.23,NNW,340,4.1,10.9,78,0.00,--,--,0.00,awk and wget,2013-01-20 05:45:00,
2013-01-20 00:50:00,23.5,19.2,27.23,NNW,340,6.6,10.9,83,0.00,--,--,0.00,awk and wget,2013-01-20 05:50:00,
2013-01-20 01:00:00,22.8,18.0,27.23,NNW,340,3.5,10.2,81,0.00,--,--,0.00,awk and wget,2013-01-20 06:00:00,
2013-01-20 01:10:00,23.7,17.6,27.23,NNW,336,9.4,11.4,77,0.00,--,--,0.00,awk and wget,2013-01-20 06:10:00,
2013-01-20 01:15:00,24.0,17.4,27.23,NNW,339,5.1,11.4,75,0.00,--,--,0.00,awk and wget,2013-01-20 06:15:00,
2013-01-20 01:20:00,23.5,17.6,27.22,NNW,338,11.7,11.7,77,0.00,--,--,0.00,awk and wget,2013-01-20 06:20:00,
2013-01-20 01:30:00,24.2,18.8,27.22,NNW,337,8.2,11.6,79,0.00,--,--,0.00,awk and wget,2013-01-20 06:30:00,
2013-01-20 01:40:00,25.8,18.4,27.23,NNW,338,4.9,9.2,73,0.00,--,--,0.00,awk and wget,2013-01-20 06:40:00,
2013-01-20 01:50:00,26.5,18.4,27.22,SSE,151,9.8,9.8,71,0.00,--,--,0.00,awk and wget,2013-01-20 06:50:00,
2013-01-20 02:00:00,26.2,18.5,27.22,NNW,341,7.2,15.7,72,0.00,--,--,0.00,awk and wget,2013-01-20 07:00:00,
2013-01-20 02:05:00,28.1,18.6,27.22,NNW,338,5.2,15.7,67,0.00,--,--,0.00,awk and wget,2013-01-20 07:05:00,
2013-01-20 02:10:00,28.8,18.9,27.22,NNW,338,6.9,15.7,66,0.00,--,--,0.00,awk and wget,2013-01-20 07:10:00,
2013-01-20 02:15:00,28.3,18.1,27.22,NNW,340,2.1,11.2,65,0.00,--,--,0.00,awk and wget,2013-01-20 07:15:00,
2013-01-20 02:20:00,30.3,19.7,27.22,NNW,340,5.9,14.2,64,0.00,--,--,0.00,awk and wget,2013-01-20 07:20:00,
2013-01-20 02:25:00,30.8,19.1,27.22,NNW,342,5.2,15.9,61,0.00,--,--,0.00,awk and wget,2013-01-20 07:25:00,
2013-01-20 02:30:00,31.0,19.5,27.22,NNW,337,3.5,15.9,61,0.00,--,--,0.00,awk and wget,2013-01-20 07:30:00,
2013-01-20 02:35:00,29.4,20.1,27.22,NNW,336,8.2,15.9,67,0.00,--,--,0.00,awk and wget,2013-01-20 07:35:00,
2013-01-20 02:40:00,36.7,22.1,27.22,NNW,341,5.1,19.3,55,0.00,--,--,0.00,awk and wget,2013-01-20 07:40:00,
2013-01-20 02:45:00,38.2,21.3,27.21,NNW,340,7.7,19.3,50,0.00,--,--,0.00,awk and wget,2013-01-20 07:45:00,
2013-01-20 02:50:00,32.4,21.4,27.21,NNW,342,5.4,19.3,63,0.00,--,--,0.00,awk and wget,2013-01-20 07:50:00,
2013-01-20 03:00:00,38.3,21.6,27.22,NNW,341,9.3,30.4,50,0.00,--,--,0.00,awk and wget,2013-01-20 08:00:00,
2013-01-20 03:05:00,41.5,22.2,27.21,NNW,338,6.9,30.4,45,0.00,--,--,0.00,awk and wget,2013-01-20 08:05:00,
2013-01-20 03:10:00,40.6,22.6,27.21,NNW,338,5.7,23.8,48,0.00,--,--,0.00,awk and wget,2013-01-20 08:10:00,
2013-01-20 03:15:00,40.7,21.9,27.21,NNW,337,5.8,23.8,46,0.00,--,--,0.00,awk and wget,2013-01-20 08:15:00,
2013-01-20 03:20:00,41.6,22.1,27.21,NNW,341,2.5,23.8,45,0.00,--,--,0.00,awk and wget,2013-01-20 08:20:00,
2013-01-20 03:30:00,41.2,23.4,27.21,NNW,339,4.9,21.5,48,0.00,--,--,0.00,awk and wget,2013-01-20 08:30:00,
2013-01-20 03:35:00,41.2,23.2,27.21,NNW,338,5.2,21.5,48,0.00,--,--,0.00,awk and wget,2013-01-20 08:35:00,
2013-01-20 03:40:00,41.2,22.9,27.20,SE,135,2.3,21.5,47,0.00,--,--,0.00,awk and wget,2013-01-20 08:40:00,
2013-01-20 03:50:00,40.8,23.2,27.20,NNW,338,10.8,16.8,49,0.00,--,--,0.00,awk and wget,2013-01-20 08:50:00,
2013-01-20 04:00:00,41.0,23.5,27.20,SE,130,6.8,16.8,49,0.00,--,--,0.00,awk and wget,2013-01-20 09:00:00,
2013-01-20 04:05:00,41.0,23.3,27.20,NNW,341,4.0,15.4,48,0.00,--,--,0.00,awk and wget,2013-01-20 09:05:00,
2013-01-20 04:10:00,40.6,23.6,27.20,NNW,336,4.3,14.6,50,0.00,--,--,0.00,awk and wget,2013-01-20 09:10:00,
2013-01-20 04:15:00,41.1,23.7,27.19,SSE,149,1.9,16.1,49,0.00,--,--,0.00,awk and wget,2013-01-20 09:15:00,
2013-01-20 04:20:00,40.8,23.7,27.20,NNW,340,7.6,16.1,50,0.00,--,--,0.00,awk and wget,2013-01-20 09:20:00,
2013-01-20 04:25:00,41.0,24.0,27.19,SSE,148,2.6,16.1,50,0.00,--,--,0.00,awk and wget,2013-01-20 09:25:00,
2013-01-20 04:30:00,40.8,23.9,27.19,NNW,336,5.2,14.9,50,0.00,--,--,0.00,awk and wget,2013-01-20 09:30:00,
2013-01-20 04:35:00,40.3,24.2,27.19,NNW,340,11.6,13.8,52,0.00,--,--,0.00,awk and wget,2013-01-20 09:35:00,
2013-01-20 04:40:00,40.7,24.3,27.19,NNW,340,3.1,18.4,51,0.00,--,--,0.00,awk and wget,2013-01-20 09:40:00,
2013-01-20 04:45:00,39.8,24.5,27.19,NNW,336,10.9,18.4,53,0.00,--,--,0.00,awk and wget,2013-01-20 09:45:00,
2013-01-20 04:50:00,39.7,24.3,27.19,NNW,336,3.2,18.4,53,0.00,--,--,0.00,awk and wget,2013-01-20 09:50:00,
2013-01-20 05:00:00,39.4,24.6,27.19,NNW,341,5.5,17.8,55,0.00,--,--,0.00,awk and wget,2013-01-20 10:00:00,
2013-01-20 05:10:00,40.1,24.6,27.18,NNW,336,6.2,12.8,53,0.00,--,--,0.00,awk and wget,2013-01-20 10:10:00,
2013-01-20 05:15:00,39.7,24.7,27.18,NNW,340,3.3,15.3,54,0.00,--,--,0.00,awk and wget,2013-01-20 10:15:00,
2013-01-20 05:20:00,39.6,24.8,27.18,NNW,337,4.0,17.2,55,0.00,--,--,0.00,awk and wget,2013-01-20 10:20:00,
2013-01-20 05:30:00,39.1,24.8,27.18,NNW,338,5.2,22.8,56,0.00,--,--,0.00,awk and wget,2013-01-20 10:30:00,
2013-01-20 05:40:00,39.6,24.9,27.17,North,357,6.1,22.8,55,0.00,--,--,0.00,awk and wget,2013-01-20 10:40:00,
2013-01-20 05:45:00,39.8,25.1,27.17,NNW,335,8.0,16.4,55,0.00,--,--,0.00,awk and wget,2013-01-20 10:45:00,
2013-01-20 05:50:00,39.2,25.1,27.17,NNW,340,3.9,19.0,56,0.00,--,--,0.00,awk and wget,2013-01-20 10:50:00,
2013-01-20 05:55:00,38.9,25.2,27.17,NNW,339,1.6,19.0,57,0.00,--,--,0.00,awk and wget,2013-01-20 10:55:00,
2013-01-20 06:00:00,38.5,24.9,27.17,NNW,340,0.7,19.0,57,0.00,--,--,0.00,awk and wget,2013-01-20 11:00:00,
2013-01-20 06:05:00,39.3,25.2,27.18,NNW,345,4.7,17.4,56,0.00,--,--,0.00,awk and wget,2013-01-20 11:05:00,
2013-01-20 06:10:00,39.7,25.2,27.17,North,356,3.6,15.5,55,0.00,--,--,0.00,awk and wget,2013-01-20 11:10:00,
2013-01-20 06:20:00,39.3,25.7,27.18,NNW,339,3.4,15.5,57,0.00,--,--,0.00,awk and wget,2013-01-20 11:20:00,
2013-01-20 06:30:00,39.6,25.7,27.18,NNW,335,32.0,32.0,56,0.00,--,--,0.00,awk and wget,2013-01-20 11:30:00,
2013-01-20 06:40:00,39.0,25.3,27.18,East,86,5.1,20.3,57,0.00,--,--,0.00,awk and wget,2013-01-20 11:40:00,
2013-01-20 06:45:00,38.1,25.5,27.18,NNW,337,2.4,20.3,60,0.00,--,--,0.00,awk and wget,2013-01-20 11:45:00,
2013-01-20 06:50:00,38.9,25.5,27.18,NNW,339,5.7,15.2,58,0.00,--,--,0.00,awk and wget,2013-01-20 11:50:00,
2013-01-20 07:00:00,38.9,25.8,27.18,NNW,339,3.8,15.2,59,0.00,--,--,0.00,awk and wget,2013-01-20 12:00:00,
2013-01-20 07:10:00,39.2,26.3,27.18,NNW,340,8.6,12.0,59,0.00,--,--,0.00,awk and wget,2013-01-20 12:10:00,
2013-01-20 07:15:00,39.4,26.2,27.18,NNW,337,13.8,16.6,58,0.00,--,--,0.00,awk and wget,2013-01-20 12:15:00,
2013-01-20 07:20:00,39.2,26.1,27.18,NNW,339,3.9,16.6,59,0.00,--,--,0.00,awk and wget,2013-01-20 12:20:00,
2013-01-20 07:30:00,39.2,26.2,27.18,NNW,337,9.4,18.1,59,0.00,--,--,0.00,awk and wget,2013-01-20 12:30:00,
2013-01-20 07:40:00,39.1,26.3,27.18,NNW,338,4.5,18.2,59,0.00,--,--,0.00,awk and wget,2013-01-20 12:40:00,
2013-01-20 07:45:00,39.0,26.4,27.19,NNW,337,22.9,22.9,60,0.00,--,--,0.00,awk and wget,2013-01-20 12:45:00,
2013-01-20 07:50:00,39.2,26.2,27.19,NNW,346,13.7,18.2,59,0.00,--,--,0.00,awk and wget,2013-01-20 12:50:00,
2013-01-20 07:55:00,38.9,25.8,27.18,NNW,335,9.1,19.1,59,0.00,--,--,0.00,awk and wget,2013-01-20 12:55:00,
2013-01-20 08:00:00,38.9,25.9,27.19,NNW,340,19.0,27.6,59,0.00,--,--,0.00,awk and wget,2013-01-20 13:00:00,
2013-01-20 08:10:00,39.2,25.4,27.19,NNW,334,9.2,27.6,57,0.00,--,--,0.00,awk and wget,2013-01-20 13:10:00,
2013-01-20 08:15:00,39.2,25.4,27.19,NNW,337,14.7,16.7,57,0.00,--,--,0.00,awk and wget,2013-01-20 13:15:00,
2013-01-20 08:20:00,39.0,25.6,27.19,NNW,335,13.8,27.0,58,0.00,--,--,0.00,awk and wget,2013-01-20 13:20:00,
2013-01-20 08:25:00,38.9,25.6,27.19,NNW,334,14.6,27.0,58,0.00,--,--,0.00,awk and wget,2013-01-20 13:25:00,
2013-01-20 08:30:00,39.1,25.5,27.20,NNW,339,19.0,27.0,57,0.00,--,--,0.00,awk and wget,2013-01-20 13:30:00,
2013-01-20 08:40:00,38.9,25.5,27.20,NNW,339,7.5,20.2,58,0.00,--,--,0.00,awk and wget,2013-01-20 13:40:00,
2013-01-20 08:45:00,38.9,25.6,27.21,NNW,338,22.7,26.7,58,0.00,--,--,0.00,awk and wget,2013-01-20 13:45:00,
2013-01-20 08:50:00,38.9,25.5,27.20,NNW,333,18.4,26.7,58,0.00,--,--,0.00,awk and wget,2013-01-20 13:50:00,
2013-01-20 08:55:00,38.9,25.3,27.21,NNW,334,16.6,26.7,57,0.00,--,--,0.00,awk and wget,2013-01-20 13:55:00,
2013-01-20 09:00:00,38.7,25.4,27.20,NNW,338,8.7,17.4,58,0.00,--,--,0.00,awk and wget,2013-01-20 14:00:00,
2013-01-20 09:10:00,38.8,25.3,27.19,NNW,336,14.4,17.4,57,0.00,--,--,0.00,awk and wget,2013-01-20 14:10:00,
2013-01-20 09:15:00,38.9,25.0,27.21,NNW,340,20.4,21.7,56,0.00,--,--,0.00,awk and wget,2013-01-20 14:15:00,
2013-01-20 09:20:00,38.9,25.2,27.21,NNW,337,23.0,23.0,57,0.00,--,--,0.00,awk and wget,2013-01-20 14:20:00,
2013-01-20 09:30:00,38.9,25.0,27.21,NNW,334,14.6,17.4,56,0.00,--,--,0.00,awk and wget,2013-01-20 14:30:00,
2013-01-20 09:40:00,38.9,25.0,27.20,NNW,336,7.8,20.6,56,0.00,--,--,0.00,awk and wget,2013-01-20 14:40:00,
2013-01-20 09:50:00,39.6,24.3,27.20,NNW,337,18.7,20.6,53,0.00,--,--,0.00,awk and wget,2013-01-20 14:50:00,
2013-01-20 10:00:00,40.0,23.6,27.20,NNW,337,16.8,17.6,51,0.00,--,--,0.00,awk and wget,2013-01-20 15:00:00,
2013-01-20 10:05:00,40.2,23.8,27.20,NNW,337,11.5,19.6,51,0.00,--,--,0.00,awk and wget,2013-01-20 15:05:00,
2013-01-20 10:10:00,40.3,23.5,27.20,NNW,333,13.1,19.8,50,0.00,--,--,0.00,awk and wget,2013-01-20 15:10:00,
2013-01-20 10:20:00,40.8,23.8,27.21,NNW,344,11.7,20.0,50,0.00,--,--,0.00,awk and wget,2013-01-20 15:20:00,
2013-01-20 10:30:00,40.0,22.6,27.21,NNW,336,14.0,29.3,49,0.00,--,--,0.00,awk and wget,2013-01-20 15:30:00,
2013-01-20 10:40:00,40.0,22.2,27.21,NE,54,11.6,30.2,48,0.00,--,--,0.00,awk and wget,2013-01-20 15:40:00,
2013-01-20 10:45:00,40.6,22.5,27.21,NNW,334,17.9,30.2,47,0.00,--,--,0.00,awk and wget,2013-01-20 15:45:00,
2013-01-20 10:50:00,40.2,21.6,27.22,NNW,333,29.2,30.2,47,0.00,--,--,0.00,awk and wget,2013-01-20 15:50:00,
2013-01-20 10:55:00,40.5,21.9,27.21,NNW,333,9.0,38.6,47,0.00,--,--,0.00,awk and wget,2013-01-20 15:55:00,
2013-01-20 11:00:00,40.2,21.3,27.21,NNW,334,5.8,38.6,46,0.00,--,--,0.00,awk and wget,2013-01-20 16:00:00,
2013-01-20 11:05:00,40.3,21.4,27.21,NNW,348,14.3,38.6,46,0.00,--,--,0.00,awk and wget,2013-01-20 16:05:00,
2013-01-20 11:10:00,40.7,21.7,27.21,NNW,339,12.4,27.0,46,0.00,--,--,0.00,awk and wget,2013-01-20 16:10:00,
2013-01-20 11:15:00,42.0,21.7,27.21,NNW,333,14.1,22.5,44,0.00,--,--,0.00,awk and wget,2013-01-20 16:15:00,
2013-01-20 11:20:00,41.1,21.4,27.21,NNW,333,10.0,22.5,45,0.00,--,--,0.00,awk and wget,2013-01-20 16:20:00,
2013-01-20 11:30:00,41.1,20.7,27.20,NNW,339,14.9,24.0,43,0.00,--,--,0.00,awk and wget,2013-01-20 16:30:00,
2013-01-20 11:40:00,41.4,20.8,27.21,NNW,343,22.0,27.5,43,0.00,--,--,0.00,awk and wget,2013-01-20 16:40:00,
2013-01-20 11:50:00,41.8,20.6,27.21,NNW,337,18.8,36.9,42,0.00,--,--,0.00,awk and wget,2013-01-20 16:50:00,
2013-01-20 12:00:00,41.9,20.7,27.20,North,2,3.2,25.7,42,0.00,--,--,0.00,awk and wget,2013-01-20 17:00:00,
2013-01-20 12:05:00,42.8,21.5,27.20,NNW,338,2.7,23.9,42,0.00,--,--,0.00,awk and wget,2013-01-20 17:05:00,
2013-01-20 12:10:00,43.7,21.5,27.19,NNW,333,7.0,21.1,40,0.00,--,--,0.00,awk and wget,2013-01-20 17:10:00,
2013-01-20 12:20:00,42.3,21.6,27.19,NNW,336,15.5,21.7,43,0.00,--,--,0.00,awk and wget,2013-01-20 17:20:00,
2013-01-20 12:30:00,42.0,21.5,27.19,NNW,330,26.9,26.9,43,0.00,--,--,0.00,awk and wget,2013-01-20 17:30:00,
2013-01-20 12:40:00,40.8,20.0,27.19,North,349,11.7,20.9,42,0.00,--,--,0.00,awk and wget,2013-01-20 17:40:00,
2013-01-20 12:50:00,41.3,16.6,27.19,NNW,331,16.8,21.2,36,0.00,--,--,0.00,awk and wget,2013-01-20 17:50:00,
2013-01-20 13:00:00,41.4,16.9,27.19,NNW,347,9.2,40.5,36,0.00,--,--,0.00,awk and wget,2013-01-20 18:00:00,
2013-01-20 13:10:00,40.9,19.0,27.20,NNW,336,7.3,30.6,40,0.00,--,--,0.00,awk and wget,2013-01-20 18:10:00,
2013-01-20 13:15:00,42.0,19.5,27.19,NNW,330,31.4,31.4,40,0.00,--,--,0.00,awk and wget,2013-01-20 18:15:00,
2013-01-20 13:20:00,41.4,18.4,27.19,NNW,331,20.7,31.1,39,0.00,--,--,0.00,awk and wget,2013-01-20 18:20:00,
2013-01-20 13:30:00,41.6,18.6,27.20,NNW,330,18.3,25.9,39,0.00,--,--,0.00,awk and wget,2013-01-20 18:30:00,
2013-01-20 13:40:00,41.7,18.1,27.19,NNW,336,21.2,25.9,38,0.00,--,--,0.00,awk and wget,2013-01-20 18:40:00,
2013-01-20 13:45:00,41.6,18.0,27.20,NNW,331,12.7,23.7,38,0.00,--,--,0.00,awk and wget,2013-01-20 18:45:00,
2013-01-20 13:50:00,41.5,17.1,27.19,NNW,334,18.3,25.0,36,0.00,--,--,0.00,awk and wget,2013-01-20 18:50:00,
2013-01-20 13:55:00,42.3,17.6,27.19,NNW,330,23.1,29.9,36,0.00,--,--,0.00,awk and wget,2013-01-20 18:55:00,
2013-01-20 14:00:00,42.3,18.1,27.19,NNW,330,11.1,29.9,37,0.00,--,--,0.00,awk and wget,2013-01-20 19:00:00,
2013-01-20 14:10:00,42.0,17.5,27.20,NNW,338,19.4,21.3,36,0.00,--,--,0.00,awk and wget,2013-01-20 19:10:00,
2013-01-20 14:20:00,42.8,18.0,27.20,NNW,332,15.3,23.1,36,0.00,--,--,0.00,awk and wget,2013-01-20 19:20:00,
2013-01-20 14:25:00,42.5,16.6,27.20,NNW,333,23.2,23.2,34,0.00,--,--,0.00,awk and wget,2013-01-20 19:25:00,
2013-01-20 14:30:00,41.7,15.8,27.20,NNW,330,3.8,25.7,34,0.00,--,--,0.00,awk and wget,2013-01-20 19:30:00,
2013-01-20 14:40:00,42.6,14.1,27.20,NNW,330,1.7,25.7,31,0.00,--,--,0.00,awk and wget,2013-01-20 19:40:00,
2013-01-20 14:45:00,42.6,13.9,27.21,NNE,17,11.1,25.8,30,0.00,--,--,0.00,awk and wget,2013-01-20 19:45:00,
2013-01-20 14:50:00,42.0,14.0,27.21,NNW,335,13.6,25.8,31,0.00,--,--,0.00,awk and wget,2013-01-20 19:50:00,
2013-01-20 15:00:00,42.0,13.1,27.21,North,1,6.8,27.0,30,0.00,--,--,0.00,awk and wget,2013-01-20 20:00:00,
2013-01-20 15:10:00,41.1,11.2,27.22,NNW,347,8.8,27.6,28,0.00,--,--,0.00,awk and wget,2013-01-20 20:10:00,
2013-01-20 15:20:00,40.9,5.6,27.21,NNW,329,28.7,28.7,22,0.00,--,--,0.00,awk and wget,2013-01-20 20:20:00,
2013-01-20 15:30:00,40.2,3.3,27.22,NNW,329,17.8,29.2,20,0.00,--,--,0.00,awk and wget,2013-01-20 20:30:00,
2013-01-20 15:40:00,40.4,1.3,27.23,NNW,333,16.9,29.3,18,0.00,--,--,0.00,awk and wget,2013-01-20 20:40:00,
2013-01-20 15:50:00,40.2,0.0,27.24,NNW,331,20.5,29.8,17,0.00,--,--,0.00,awk and wget,2013-01-20 20:50:00,
2013-01-20 16:00:00,39.5,-1.2,27.24,NNW,331,17.0,28.0,17,0.00,--,--,0.00,awk and wget,2013-01-20 21:00:00,
2013-01-20 16:05:00,39.5,-0.7,27.24,NNW,340,12.7,27.9,17,0.00,--,--,0.00,awk and wget,2013-01-20 21:05:00,
2013-01-20 16:10:00,39.3,-1.6,27.24,NNW,348,10.5,27.9,17,0.00,--,--,0.00,awk and wget,2013-01-20 21:10:00,
2013-01-20 16:20:00,39.1,-1.8,27.24,NNW,329,6.9,19.6,17,0.00,--,--,0.00,awk and wget,2013-01-20 21:20:00,
2013-01-20 16:30:00,38.9,-2.8,27.25,NNW,330,3.6,18.1,16,0.00,--,--,0.00,awk and wget,2013-01-20 21:30:00,
2013-01-20 16:40:00,38.7,-3.5,27.25,NNW,335,3.1,25.1,16,0.00,--,--,0.00,awk and wget,2013-01-20 21:40:00,
2013-01-20 16:45:00,38.2,-3.3,27.25,NNW,331,4.7,25.1,16,0.00,--,--,0.00,awk and wget,2013-01-20 21:45:00,
2013-01-20 16:50:00,37.7,-4.6,27.26,NNW,346,15.1,25.1,15,0.00,--,--,0.00,awk and wget,2013-01-20 21:50:00,
2013-01-20 17:00:00,37.4,-4.1,27.26,North,358,2.7,10.2,16,0.00,--,--,0.00,awk and wget,2013-01-20 22:00:00,
2013-01-20 17:10:00,36.1,-3.6,27.25,NNW,339,4.5,17.6,17,0.00,--,--,0.00,awk and wget,2013-01-20 22:10:00,
2013-01-20 17:20:00,36.0,-5.1,27.26,NNW,339,10.7,17.6,16,0.00,--,--,0.00,awk and wget,2013-01-20 22:20:00,
2013-01-20 17:25:00,35.9,-5.5,27.26,NNW,333,5.6,16.5,16,0.00,--,--,0.00,awk and wget,2013-01-20 22:25:00,
2013-01-20 17:30:00,35.3,-4.6,27.26,NNW,330,11.0,18.7,17,0.00,--,--,0.00,awk and wget,2013-01-20 22:30:00,
2013-01-20 17:40:00,35.3,-4.1,27.26,NNW,330,6.3,18.7,17,0.00,--,--,0.00,awk and wget,2013-01-20 22:40:00,
2013-01-20 17:50:00,34.9,-3.9,27.26,NNW,338,4.5,18.3,18,0.00,--,--,0.00,awk and wget,2013-01-20 22:50:00,
2013-01-20 18:00:00,34.1,-3.1,27.27,NNW,332,4.9,17.9,19,0.00,--,--,0.00,awk and wget,2013-01-20 23:00:00,
2013-01-20 18:05:00,34.7,-3.3,27.27,NNW,331,6.2,11.7,19,0.00,--,--,0.00,awk and wget,2013-01-20 23:05:00,
2013-01-20 18:10:00,34.3,-3.4,27.27,NNW,332,4.1,8.0,19,0.00,--,--,0.00,awk and wget,2013-01-20 23:10:00,
2013-01-20 18:15:00,33.1,0.9,27.28,NNW,337,13.1,13.1,24,0.00,--,--,0.00,awk and wget,2013-01-20 23:15:00,
2013-01-20 18:20:00,34.3,-1.7,27.27,NNW,331,9.9,10.2,20,0.00,--,--,0.00,awk and wget,2013-01-20 23:20:00,
2013-01-20 18:25:00,33.8,-2.2,27.27,East,87,4.1,15.5,20,0.00,--,--,0.00,awk and wget,2013-01-20 23:25:00,
2013-01-20 18:30:00,33.9,-3.1,27.27,NNW,337,4.5,20.1,19,0.00,--,--,0.00,awk and wget,2013-01-20 23:30:00,
2013-01-20 18:40:00,33.6,-3.1,27.28,NNW,334,9.7,20.1,20,0.00,--,--,0.00,awk and wget,2013-01-20 23:40:00,
2013-01-20 18:50:00,33.6,-3.0,27.27,NNW,342,4.7,11.5,20,0.00,--,--,0.00,awk and wget,2013-01-20 23:50:00,
2013-01-20 19:00:00,33.3,-2.2,27.27,North,349,2.9,15.1,21,0.00,--,--,0.00,awk and wget,2013-01-21 00:00:00,
2013-01-20 19:05:00,33.1,-1.7,27.28,NNW,337,2.6,15.1,21,0.00,--,--,0.00,awk and wget,2013-01-21 00:05:00,
2013-01-20 19:10:00,32.7,-1.7,27.28,NNW,346,4.6,15.1,22,0.00,--,--,0.00,awk and wget,2013-01-21 00:10:00,
2013-01-20 19:20:00,33.2,-1.7,27.28,NNE,18,1.9,11.3,21,0.00,--,--,0.00,awk and wget,2013-01-21 00:20:00,
2013-01-20 19:30:00,32.9,-0.4,27.27,NNW,333,22.0,22.3,23,0.00,--,--,0.00,awk and wget,2013-01-21 00:30:00,
2013-01-20 19:40:00,32.3,-0.5,27.28,NNW,334,3.7,22.3,23,0.00,--,--,0.00,awk and wget,2013-01-21 00:40:00,
2013-01-20 19:50:00,32.0,0.7,27.28,ESE,123,0.3,19.7,25,0.00,--,--,0.00,awk and wget,2013-01-21 00:50:00,
2013-01-20 19:55:00,31.3,2.1,27.28,NNW,339,1.2,19.7,28,0.00,--,--,0.00,awk and wget,2013-01-21 00:55:00,
2013-01-20 20:00:00,31.3,2.5,27.28,NNW,334,4.9,19.7,28,0.00,--,--,0.00,awk and wget,2013-01-21 01:00:00,
2013-01-20 20:10:00,32.4,-0.2,27.28,NNW,336,5.7,14.9,24,0.00,--,--,0.00,awk and wget,2013-01-21 01:10:00,
2013-01-20 20:15:00,32.2,-0.2,27.28,SE,134,6.8,13.7,24,0.00,--,--,0.00,awk and wget,2013-01-21 01:15:00,
2013-01-20 20:20:00,32.2,-1.4,27.28,NNW,336,1.0,13.2,23,0.00,--,--,0.00,awk and wget,2013-01-21 01:20:00,
2013-01-20 20:25:00,32.0,-1.1,27.27,ENE,72,1.5,13.2,23,0.00,--,--,0.00,awk and wget,2013-01-21 01:25:00,
2013-01-20 20:30:00,32.0,1.0,27.27,ENE,63,7.1,11.7,26,0.00,--,--,0.00,awk and wget,2013-01-21 01:30:00,
2013-01-20 20:40:00,30.9,1.0,27.27,NE,49,3.5,13.8,27,0.00,--,--,0.00,awk and wget,2013-01-21 01:40:00,
2013-01-20 20:45:00,31.2,-0.4,27.27,ESE,117,3.0,18.2,25,0.00,--,--,0.00,awk and wget,2013-01-21 01:45:00,
2013-01-20 20:50:00,31.2,-0.3,27.27,NNE,25,3.7,18.2,25,0.00,--,--,0.00,awk and wget,2013-01-21 01:50:00,
2013-01-20 21:00:00,29.7,2.5,27.27,East,79,6.5,16.5,30,0.00,--,--,0.00,awk and wget,2013-01-21 02:00:00,
2013-01-20 21:05:00,29.5,2.8,27.27,East,82,7.1,18.3,31,0.00,--,--,0.00,awk and wget,2013-01-21 02:05:00,
2013-01-20 21:10:00,29.8,3.4,27.26,NNW,337,9.0,18.3,31,0.00,--,--,0.00,awk and wget,2013-01-21 02:10:00,
2013-01-20 21:20:00,30.5,1.5,27.27,North,7,2.8,13.2,28,0.00,--,--,0.00,awk and wget,2013-01-21 02:20:00,
2013-01-20 21:30:00,28.9,4.4,27.27,NNW,341,4.7,10.6,34,0.00,--,--,0.00,awk and wget,2013-01-21 02:30:00,
2013-01-20 21:40:00,27.9,6.3,27.27,NNW,335,1.7,11.3,39,0.00,--,--,0.00,awk and wget,2013-01-21 02:40:00,
2013-01-20 21:45:00,27.9,5.2,27.27,NE,45,1.0,11.3,37,0.00,--,--,0.00,awk and wget,2013-01-21 02:45:00,
2013-01-20 21:50:00,27.8,5.1,27.27,NNW,341,0.5,11.3,37,0.00,--,--,0.00,awk and wget,2013-01-21 02:50:00,
2013-01-20 22:00:00,26.5,6.4,27.28,East,82,2.1,7.7,41,0.00,--,--,0.00,awk and wget,2013-01-21 03:00:00,
2013-01-20 22:05:00,28.4,7.1,27.27,East,99,3.5,10.6,39,0.00,--,--,0.00,awk and wget,2013-01-21 03:05:00,
2013-01-20 22:10:00,27.2,7.3,27.28,NE,55,3.5,10.6,42,0.00,--,--,0.00,awk and wget,2013-01-21 03:10:00,
2013-01-20 22:15:00,27.7,7.3,27.28,SE,133,6.5,11.3,41,0.00,--,--,0.00,awk and wget,2013-01-21 03:15:00,
2013-01-20 22:20:00,27.6,6.4,27.28,East,95,2.4,11.3,39,0.00,--,--,0.00,awk and wget,2013-01-21 03:20:00,
2013-01-20 22:30:00,27.7,6.6,27.28,ESE,114,5.9,11.3,40,0.00,--,--,0.00,awk and wget,2013-01-21 03:30:00,
2013-01-20 22:35:00,26.6,7.7,27.28,ESE,103,6.9,11.6,44,0.00,--,--,0.00,awk and wget,2013-01-21 03:35:00,
2013-01-20 22:40:00,26.8,7.3,27.28,East,85,6.5,11.6,42,0.00,--,--,0.00,awk and wget,2013-01-21 03:40:00,
2013-01-20 22:45:00,26.9,7.6,27.27,NNE,14,9.6,11.6,43,0.00,--,--,0.00,awk and wget,2013-01-21 03:45:00,
2013-01-20 22:50:00,26.7,7.6,27.28,NNW,342,7.3,11.2,43,0.00,--,--,0.00,awk and wget,2013-01-21 03:50:00,
2013-01-20 22:55:00,25.8,8.1,27.28,East,93,6.7,11.2,46,0.00,--,--,0.00,awk and wget,2013-01-21 03:55:00,
2013-01-20 23:05:00,26.5,7.4,27.27,ENE,65,6.8,8.8,43,0.00,--,--,0.00,awk and wget,2013-01-21 04:05:00,
2013-01-20 23:10:00,26.2,7.4,27.27,North,5,2.6,11.1,44,0.00,--,--,0.00,awk and wget,2013-01-21 04:10:00,
2013-01-20 23:20:00,26.4,5.7,27.27,NNW,338,5.3,11.4,40,0.00,--,--,0.00,awk and wget,2013-01-21 04:20:00,
2013-01-20 23:30:00,25.2,6.8,27.27,NNW,340,4.7,5.7,44,0.00,--,--,0.00,awk and wget,2013-01-21 04:30:00,
2013-01-20 23:40:00,24.9,6.7,27.27,NNW,336,3.0,8.9,45,0.00,--,--,0.00,awk and wget,2013-01-21 04:40:00,
2013-01-20 23:50:00,25.3,8.3,27.27,NNW,338,1.4,8.2,47,0.00,--,--,0.00,awk and wget,2013-01-21 04:50:00,